Date String (YYYY-MM-DD hh:mm:ss) UTC,Instrument flags,Ambient pressure (hPa),Sample flow (lpm),Bypass flow (lpm),Sample temperature (°C),Ambient temperature (°C),ASC tube jacket temperature (°C),LED temperature (°C),Box temperature (°C),Sample RH (%),Span deviation,Mass concentration (μg/m³),Mass concentration (μg/m³),Mass concentration (μg/m³)
DateTimeUTC,F1_M11,P_M11,Q1_M11,Q2_M11,T1_M11,T2_M11,T3_M11,T4_M11,T5_M11,U1_M11,ZSPAN_M11,X0_M11,X2_M11,X1_M11
2021-11-16 16:00:00,,0817.5,5.00,0.00,28.5,27.5,00.0,37.6,30.2,08.7,0000.0,0004.16,0000.80,0000.41
2021-11-16 16:01:00,,0817.4,5.01,0.00,28.5,27.5,00.0,37.6,30.2,08.7,0000.0,0003.83,0000.79,0000.41
2021-11-16 16:02:00,,0817.3,5.01,0.00,28.5,27.6,00.0,37.6,30.3,08.7,0000.0,0003.68,0000.74,0000.41
2021-11-16 16:03:00,,0817.3,5.00,0.00,28.5,27.6,00.0,37.6,30.2,08.7,0000.0,0002.34,0000.76,0000.40
2021-11-16 16:04:00,,0817.2,5.00,0.00,28.5,27.5,00.0,37.6,30.2,08.6,0000.0,0001.71,0000.80,0000.41
2021-11-16 16:05:00,,0817.1,5.01,0.00,28.6,27.5,00.0,37.6,30.2,08.4,0000.0,0001.70,0000.81,0000.40
2021-11-16 16:06:00,,0817.0,4.98,0.00,28.5,27.6,00.0,37.6,30.3,08.1,0000.0,0003.36,0000.88,0000.41
2021-11-16 16:07:00,,0817.3,5.00,0.00,28.6,27.6,00.0,37.6,30.3,07.9,0000.0,0003.90,0000.92,0000.41
2021-11-16 16:08:00,,0817.2,5.00,0.00,28.6,27.6,00.0,37.6,30.3,08.1,0000.0,0003.88,0000.89,0000.40
2021-11-16 16:09:00,,0817.3,5.01,0.00,28.6,27.6,00.0,37.6,30.3,08.3,0000.0,0003.84,0000.85,0000.37
2021-11-16 16:10:00,,0817.5,5.02,0.00,28.6,27.6,00.0,37.6,30.3,08.3,0000.0,0003.85,0000.82,0000.32
2021-11-16 16:11:00,,0817.3,5.00,0.00,28.6,27.7,00.0,37.6,30.3,08.4,0000.0,0004.00,0000.79,0000.28
2021-11-16 16:12:00,,0817.3,4.99,0.00,28.6,27.7,00.0,37.6,30.3,08.4,0000.0,0004.04,0000.80,0000.28
2021-11-16 16:13:00,,0817.3,5.00,0.00,28.5,27.7,00.0,37.6,30.3,08.5,0000.0,0004.19,0000.85,0000.29
2021-11-16 16:14:00,,0817.3,5.00,0.00,28.5,27.7,00.0,37.6,30.3,08.5,0000.0,0004.18,0000.86,0000.30
2021-11-16 16:15:00,,0817.3,4.99,0.00,28.6,27.7,00.0,37.6,30.3,08.4,0000.0,0004.02,0000.81,0000.30
2021-11-16 16:16:00,,0817.5,5.01,0.00,28.6,27.7,00.0,37.6,30.4,08.1,0000.0,0003.85,0000.78,0000.30
2021-11-16 16:17:00,,0817.5,5.00,0.00,28.6,27.7,00.0,37.6,30.3,08.4,0000.0,0002.06,0000.66,0000.29
2021-11-16 16:18:00,,0817.5,5.00,0.00,28.6,27.7,00.0,37.6,30.3,08.5,0000.0,0001.64,0000.63,0000.28
2021-11-16 16:19:00,,0817.4,5.00,0.00,28.6,27.7,00.0,37.6,30.3,08.2,0000.0,0001.75,0000.65,0000.29
2021-11-16 16:20:00,,0817.2,5.00,0.00,28.6,27.6,00.0,37.6,30.2,08.3,0000.0,0001.80,0000.67,0000.29
2021-11-16 16:21:00,,0817.2,5.00,0.00,28.6,27.6,00.0,37.6,30.3,08.2,0000.0,0001.66,0000.66,0000.29
2021-11-16 16:22:00,,0817.2,5.01,0.00,28.6,27.6,00.0,37.6,30.4,08.1,0000.0,0001.64,0000.69,0000.28
2021-11-16 16:23:00,,0817.3,4.99,0.00,28.6,27.7,00.0,37.6,30.4,08.1,0000.0,0001.77,0000.71,0000.28
2021-11-16 16:24:00,,0817.3,5.00,0.00,28.6,27.7,00.0,37.6,30.3,08.2,0000.0,0002.69,0000.70,0000.28
2021-11-16 16:25:00,,0817.3,5.00,0.00,28.6,27.7,00.0,37.6,30.4,08.1,0000.0,0003.42,0000.71,0000.27
2021-11-16 16:26:00,,0817.3,5.00,0.00,28.6,27.7,00.0,37.6,30.3,07.9,0000.0,0003.55,0000.75,0000.27
2021-11-16 16:27:00,,0817.3,5.01,0.00,28.6,27.7,00.0,37.6,30.3,08.1,0000.0,0003.51,0000.75,0000.27
2021-11-16 16:28:00,,0817.3,4.99,0.00,28.6,27.7,00.0,37.6,30.3,08.2,0000.0,0003.55,0000.79,0000.29
2021-11-16 16:29:00,,0817.2,5.00,0.00,28.6,27.7,00.0,37.6,30.4,08.2,0000.0,0003.88,0000.78,0000.29
2021-11-16 16:30:00,,0817.2,5.01,0.00,28.6,27.7,00.0,37.6,30.3,08.1,0000.0,0004.62,0000.85,0000.29
2021-11-16 16:31:00,,0817.2,5.00,0.00,28.6,27.7,00.0,37.6,30.4,08.1,0000.0,0005.83,0000.91,0000.30
2021-11-16 16:32:00,,0817.3,5.00,0.00,28.6,27.7,00.0,37.6,30.4,08.2,0000.0,0007.42,0001.08,0000.33
2021-11-16 16:33:00,,0817.4,5.02,0.00,28.6,27.7,00.0,37.6,30.4,08.3,0000.0,0008.34,0001.12,0000.33
2021-11-16 16:34:00,,0817.4,5.00,0.00,28.6,27.7,00.0,37.7,30.4,08.3,0000.0,0009.17,0001.59,0000.39
2021-11-16 16:35:00,,0817.3,5.00,0.00,28.6,27.7,00.0,37.7,30.4,08.3,0000.0,0009.21,0001.93,0000.43
2021-11-16 16:36:00,,0817.4,5.01,0.00,28.6,27.8,00.0,37.7,30.5,08.3,0000.0,0008.82,0001.93,0000.43
2021-11-16 16:37:00,,0817.4,5.00,0.00,28.6,27.8,00.0,37.7,30.4,08.3,0000.0,0008.80,0001.90,0000.44
2021-11-16 16:38:00,,0817.5,5.00,0.00,28.6,27.8,00.0,37.7,30.3,08.4,0000.0,0008.82,0001.92,0000.44
2021-11-16 16:39:00,,0817.5,4.99,0.00,28.6,27.7,00.0,37.6,30.3,08.3,0000.0,0008.73,0001.86,0000.43
2021-11-16 16:40:00,,0817.4,5.01,0.00,28.6,27.7,00.0,37.7,30.3,08.2,0000.0,0008.58,0001.85,0000.43
2021-11-16 16:41:00,,0817.5,5.00,0.00,28.6,27.7,00.0,37.7,30.4,08.1,0000.0,0008.15,0001.76,0000.42
2021-11-16 16:42:00,,0817.5,5.00,0.00,28.6,27.8,00.0,37.7,30.4,08.2,0000.0,0007.36,0001.66,0000.41
2021-11-16 16:43:00,,0817.5,5.01,0.00,28.6,27.8,00.0,37.7,30.4,08.4,0000.0,0005.66,0001.47,0000.38
2021-11-16 16:44:00,,0817.5,5.00,0.00,28.6,27.8,00.0,37.7,30.4,08.4,0000.0,0003.77,0001.37,0000.38
2021-11-16 16:45:00,,0817.5,5.00,0.00,28.6,27.8,00.0,37.7,30.4,08.3,0000.0,0002.32,0000.91,0000.34
2021-11-16 16:46:00,,0817.5,5.00,0.00,28.6,27.8,00.0,37.7,30.4,08.3,0000.0,0001.15,0000.49,0000.28
2021-11-16 16:47:00,,0817.4,4.99,0.00,28.6,27.8,00.0,37.7,30.4,08.3,0000.0,0001.25,0000.50,0000.27
2021-11-16 16:48:00,,0817.5,5.01,0.00,28.6,27.8,00.0,37.7,30.4,08.4,0000.0,0004.39,0000.85,0000.32
2021-11-16 16:49:00,,0817.6,4.99,0.00,28.6,27.8,00.0,37.7,30.3,08.4,0000.0,0006.96,0001.08,0000.36
2021-11-16 16:50:00,,0817.6,4.99,0.00,28.6,27.7,00.0,37.7,30.3,08.4,0000.0,0006.97,0001.08,0000.36
2021-11-16 16:51:00,,0817.6,5.00,0.00,28.7,27.7,00.0,37.7,30.4,08.3,0000.0,0006.90,0001.06,0000.36
2021-11-16 16:52:00,,0817.6,5.00,0.00,28.7,27.7,00.0,37.7,30.4,08.2,0000.0,0007.03,0001.13,0000.35
2021-11-16 16:53:00,,0817.6,5.00,0.00,28.7,27.8,00.0,37.7,30.4,08.4,0000.0,0007.12,0001.17,0000.35
2021-11-16 16:54:00,,0817.7,4.99,0.00,28.7,27.8,00.0,37.7,30.4,08.5,0000.0,0007.08,0001.16,0000.35
2021-11-16 16:55:00,,0817.7,5.00,0.00,28.7,27.8,00.0,37.7,30.4,08.4,0000.0,0007.17,0001.21,0000.35
2021-11-16 16:56:00,,0817.8,5.00,0.00,28.7,27.8,00.0,37.7,30.4,08.4,0000.0,0007.47,0001.35,0000.35
2021-11-16 16:57:00,,0817.8,4.99,0.00,28.7,27.8,00.0,37.7,30.4,08.4,0000.0,0007.54,0001.38,0000.36
2021-11-16 16:58:00,,0817.8,4.99,0.00,28.7,27.8,00.0,37.7,30.4,08.4,0000.0,0007.51,0001.36,0000.35
2021-11-16 16:59:00,,0817.7,5.00,0.00,28.7,27.8,00.0,37.7,30.4,08.5,0000.0,0005.31,0001.08,0000.31
